Weather History for KTUL - May, 2013

Change the Weather History Date:

Friday, May 31, 2013

  Actual Average Record
Temperature  
Mean Temperature 78 °F 73 °F  
Max Temperature 87 °F 83 °F 100 °F (1934)
Min Temperature 69 °F 63 °F 49 °F (1930)
Cooling Degree Days 13 9  
Month to date cooling degree days 156 169  
Year to date cooling degree days 192 234  
Growing Degree Days 28 (Base 50)    
Moisture  
Dew Point 73 °F    
Average Humidity 82    
Maximum Humidity 100    
Minimum Humidity 63    
Precipitation  
Precipitation 0.01 in 0.19 in 2.50 in (1926)
Month to date precipitation 4.71 5.91  
Year to date precipitation 13.88 16.50  
Sea Level Pressure  
Sea Level Pressure 29.67 in    
Wind  
Wind Speed 16 mph (South)    
Max Wind Speed 25 mph    
Max Gust Speed 34 mph    
Visibility 9 miles    
Events Rain , Thunderstorm    
T = Trace of Precipitation, MM = Missing Value Source: NWS Daily Summary

Daily Weather History Graph

Daily Weather History Graph

Search for Another Location

Airport or City:

Trip Planner

Search our weather history database for the weather conditions in past years. The results will help you decide how hot, cold, wet, or windy it might be!

Date:

Astronomy

May. 31, 2013 Rise Set
Actual Time 6:07 AM CDT 8:35 PM CDT
Civil Twilight 5:38 AM CDT 9:04 PM CDT
Nautical Twilight 5:01 AM CDT 9:41 PM CDT
Astronomical Twilight 4:20 AM CDT 10:22 PM CDT
Moon 1:18 AM CDT (5/31) 1:14 PM CDT (5/31)
Length of Visible Light 15h 26m
Length of Day
14h 27m
Waning Gibbous, 51% of the Moon is Illuminated
May 31
Waning Gibbous
May 31
Last Quarter
Jun 8
New
Jun 16
First Quarter
Jun 23
Full

Hourly Weather History & Observations

Time (CDT) Temp. Heat Index Dew Point Humidity Pressure Visibility Wind Dir Wind Speed Gust Speed Precip Events Conditions
12:53 AM 73.0 °F - 72.0 °F 96% 29.65 in 10.0 mi SSE 13.8 mph - N/A   Clear
1:53 AM 73.0 °F - 72.0 °F 96% 29.64 in 10.0 mi SSE 15.0 mph - N/A   Clear
2:53 AM 73.9 °F - 72.0 °F 93% 29.62 in 10.0 mi SSE 16.1 mph 27.6 mph N/A   Mostly Cloudy
3:53 AM 75.0 °F - 72.0 °F 90% 29.64 in 10.0 mi SSE 13.8 mph 24.2 mph N/A   Mostly Cloudy
4:53 AM 75.0 °F - 73.0 °F 94% 29.65 in 10.0 mi SSE 12.7 mph - N/A   Mostly Cloudy
5:53 AM 77.0 °F - 73.0 °F 88% 29.64 in 10.0 mi South 17.3 mph 25.3 mph N/A   Mostly Cloudy
6:32 AM 77.0 °F - 73.0 °F 88% 29.69 in 9.0 mi South 21.9 mph 32.2 mph N/A   Overcast
6:46 AM 77.0 °F - 73.0 °F 88% 29.69 in 9.0 mi South 17.3 mph - N/A   Mostly Cloudy
6:53 AM 77.0 °F - 73.0 °F 88% 29.67 in 9.0 mi South 17.3 mph 31.1 mph N/A   Mostly Cloudy
7:53 AM 78.1 °F - 72.0 °F 81% 29.68 in 9.0 mi South 26.5 mph 33.4 mph N/A   Mostly Cloudy
8:03 AM 78.1 °F - 73.0 °F 84% 29.71 in 10.0 mi South 18.4 mph 27.6 mph N/A   Mostly Cloudy
8:53 AM 78.1 °F - 72.0 °F 81% 29.71 in 10.0 mi South 17.3 mph 24.2 mph N/A   Overcast
9:34 AM 79.0 °F - 72.0 °F 79% 29.74 in 10.0 mi South 15.0 mph - N/A   Overcast
9:53 AM 80.1 °F 84.2 °F 73.0 °F 79% 29.73 in 10.0 mi South 16.1 mph 20.7 mph N/A   Overcast
10:53 AM 82.0 °F 87.4 °F 73.0 °F 74% 29.71 in 10.0 mi South 19.6 mph 26.5 mph N/A   Scattered Clouds
11:31 AM 82.9 °F 88.8 °F 73.0 °F 72% 29.74 in 10.0 mi South 18.4 mph 33.4 mph N/A   Mostly Cloudy
11:53 AM 82.9 °F 88.8 °F 73.0 °F 72% 29.72 in 10.0 mi South 21.9 mph 28.8 mph N/A   Mostly Cloudy
12:27 PM 82.0 °F 87.4 °F 73.0 °F 74% 29.75 in 10.0 mi South 17.3 mph 20.7 mph N/A   Overcast
12:53 PM 82.9 °F 89.4 °F 73.9 °F 74% 29.72 in 10.0 mi South 15.0 mph - N/A   Mostly Cloudy
1:53 PM 84.0 °F 91.2 °F 73.9 °F 72% 29.70 in 10.0 mi South 13.8 mph - N/A   Mostly Cloudy
2:53 PM 84.9 °F 92.1 °F 73.9 °F 69% 29.69 in 10.0 mi South 17.3 mph 27.6 mph N/A   Mostly Cloudy
3:53 PM 86.0 °F 93.0 °F 73.0 °F 65% 29.68 in 10.0 mi South 16.1 mph - N/A   Mostly Cloudy
4:53 PM 87.1 °F 94.5 °F 73.0 °F 63% 29.65 in 10.0 mi SSW 18.4 mph 23.0 mph 0.00 in   Mostly Cloudy
5:53 PM 86.0 °F 93.0 °F 73.0 °F 65% 29.55 in 10.0 mi South 21.9 mph 28.8 mph N/A   Mostly Cloudy
6:53 PM 84.0 °F 91.2 °F 73.9 °F 72% 29.62 in 10.0 mi South 11.5 mph - N/A   Overcast
7:34 PM 82.0 °F 87.9 °F 73.9 °F 76% 29.65 in 7.0 mi SSE 16.1 mph - 0.00 in Rain , Thunderstorm Light Thunderstorms and Rain
7:53 PM 82.9 °F 89.4 °F 73.9 °F 74% 29.67 in 8.0 mi South 15.0 mph 19.6 mph 0.00 in Rain , Thunderstorm Light Thunderstorms and Rain
8:53 PM 80.1 °F 84.5 °F 73.9 °F 81% 29.57 in 7.0 mi SE 20.7 mph - 0.00 in Rain , Thunderstorm Light Thunderstorms and Rain
9:53 PM 81.0 °F 86.2 °F 73.9 °F 79% 29.67 in 7.0 mi WSW 5.8 mph - 0.00 in Rain , Thunderstorm Light Thunderstorms and Rain
10:53 PM 72.0 °F - 70.0 °F 93% 29.70 in 7.0 mi NW 11.5 mph - 0.00 in Rain , Thunderstorm Light Thunderstorms and Rain
11:53 PM 70.0 °F - 69.1 °F 97% 29.70 in 7.0 mi NNW 9.2 mph - 0.01 in Rain , Thunderstorm Light Thunderstorms and Rain